Location: Bercimuel
(41.3983°N, 3.5711°W)
Time: 07:11:30
(UTC+00:00)

BREEZE-M DEB - Pass Details

Date: 15 May 2026
Orbit: 820 x 34896 km, 45.0° (Epoch: 5 June)

Event Time Altitude Azimuth Distance (km) Brightness Sun altitude
Rises 22:28:49 0° 257° (WSW) 3,418 7.0 -25.1°
Reaches altitude 10° 22:30:50 10° 259° (W) 2,408 6.2 -25.3°
Maximum altitude 22:35:14 78° 346° (NNW) 1,033 4.1 -25.6°
Drops below altitude 10° 22:44:54 10° 74° (ENE) 5,121 7.6 -26.4°
Sets 22:52:10 0° 76° (ENE) 8,276 8.7 -26.9°
